Skip Page Navigation
NASA JPL Caltech
NASA Logo - Jet Propulsion Laboratory + View the NASA Portal
+ Center for Near-Earth Object Studies
JPL Home Earth Solar System Stars & Galaxies Technology
JPL Solar System Dynamics
BODIES ORBITS EPHEMERIDES TOOLS PHYSICAL DATA DISCOVERY FAQ SITE MAP
IMPORTANT: The SSD Announcement email list is now available. Major changes are coming in the near future, including possible hostname and/or URL changes. To be notified of such changes, subscribe to this email list.

Please visit this page for more details.


JPL Small-Body Database Browser
Search: [ help ]  
410542 (2008 FM73)
Classification: Main-belt Asteroid          SPK-ID: 2410542
Ephemeris | Orbit Diagram | Orbital Elements | Mission Design | Physical Parameters | Discovery Circumstances ]

[ show orbit diagram ]
Orbital Elements at Epoch 2458600.5 (2019-Apr-27.0) TDB
Reference: JPL 10 (heliocentric ecliptic J2000)
 Element Value Uncertainty (1-sigma)   Units 
e .0250405541066757 7.4811e-08  
a 2.711221243890325 3.4582e-08 au
q 2.643330761637521 1.9148e-07 au
i 9.18087642131688 8.7341e-06 deg
node 163.2865717450936 4.1726e-05 deg
peri 104.9418951688154 0.00019471 deg
M 106.7657048894573 0.00018737 deg
tp 2458116.912422621775
(2017-Dec-29.41242262)
0.00084821 TDB
period 1630.59409420292
4.46
3.1198e-05
8.542e-08
d
yr
n .2207784274945373 4.2241e-09 deg/d
Q 2.779111726143129 3.5448e-08 au
  Orbit Determination Parameters
   # obs. used (total)      79  
   data-arc span      7530 days (20.62 yr)  
   first obs. used      1999-03-20  
   last obs. used      2019-10-31  
   planetary ephem.      DE431  
   SB-pert. ephem.      SB431-N16  
   condition code      0  
   norm. resid. RMS      .62986  
   source      ORB  
   producer      Otto Matic  
   solution date      2019-Nov-08 14:20:34  

Additional Information
 Earth MOID = 1.64423 au 
 Jupiter MOID = 2.23804 au 
 T_jup = 3.344 
[ show covariance matrix ]

Ephemeris | Orbit Diagram | Orbital Elements | Mission Design | Physical Parameters | Discovery Circumstances ]

Physical Parameter Table
Parameter Symbol Value Units Sigma Reference Notes
absolute magnitude H 17.2   n/a MPO455918  

410542 (2008 FM73)          Discovered 2008-Mar-05 by Mt. Lemmon Survey at Mount Lemmon
Reference: Last Updated: 2014-10-09
Ephemeris | Orbit Diagram | Orbital Elements | Mission Design | Physical Parameters | Discovery Circumstances ]
ABOUT SSD CREDITS/AWARDS PRIVACY/COPYRIGHT GLOSSARY LINKS
FirstGov 2020-Jan-21 09:18 UT
(server date/time)  
NASA Home Page
Site Manager:   Ryan S. Park
Webmaster  Alan B. Chamberlin